Location: Cactus School
(34.5700°N, 118.0931°W)
Time: 10:03:42
(UTC-07:00)

S-56A Canister/Altair - Pass Details

Date: 22 April 2024
Orbit: 638 x 2488 km, 38.9° (Epoch: 29 May)

Event Time Altitude Azimuth Distance (km) Brightness Sun altitude
Rises 16:34:58 0° 245° (WSW) 2,937 11.5 34.9°
Reaches altitude 10° 16:37:05 10° 244° (WSW) 2,079 11.0 34.5°
Maximum altitude 16:41:44 81° 157° (SSE) 775 8.1 33.6°
Drops below altitude 10° 16:47:54 10° 71° (ENE) 2,733 9.9 32.3°
Sets 16:51:03 0° 71° (ENE) 3,953 10.7 31.7°
